DLH478 EDDM-EDDF

Flight info

Callsign DLH478
Flight time N/A
Altitude 24000
Route GIVMI6Q GIVMI Y101 ERNAS T161 DEBHI DEBHI1B
Aircraft A343/H-SDE2E3FGHIJ4J5M1RWXY/LB1D1

Departure

Time 2026-05-06 13:42
Airport Munich Airport (EDDM)

Arrival

Time N/A
Airport Frankfurt Main Airport (EDDF)
Time Latitude Longitude Altitude Speed Heading
2026-05-06 13:14 48.35596 11.79289 1477 ft 0 kts 263°
2026-05-06 13:32 48.35596 11.79292 1483 ft 2 kts 263°
2026-05-06 13:32 48.35599 11.79331 1485 ft 4 kts 263°
2026-05-06 13:32 48.35602 11.79371 1468 ft 4 kts 263°
2026-05-06 13:33 48.35605 11.79411 1474 ft 4 kts 263°
2026-05-06 13:33 48.35607 11.79444 1476 ft 4 kts 268°
2026-05-06 13:33 48.35604 11.79481 1474 ft 4 kts 304°
2026-05-06 13:33 48.35586 11.79499 1476 ft 3 kts 353°
2026-05-06 13:34 48.35561 11.79504 1474 ft 2 kts 353°
2026-05-06 13:34 48.35560 11.79504 1474 ft 6 kts 353°
2026-05-06 13:37 48.35562 11.79503 1474 ft 3 kts 353°
2026-05-06 13:37 48.35620 11.79493 1476 ft 14 kts 353°
2026-05-06 13:37 48.35733 11.79473 1476 ft 18 kts 354°
2026-05-06 13:37 48.35854 11.79450 1478 ft 17 kts 349°
2026-05-06 13:38 48.35933 11.79351 1478 ft 15 kts 332°
2026-05-06 13:38 48.36042 11.79324 1477 ft 17 kts 354°
2026-05-06 13:38 48.36086 11.79237 1481 ft 8 kts 268°
2026-05-06 13:38 48.36077 11.79108 1477 ft 17 kts 264°
2026-05-06 13:39 48.36060 11.78892 1480 ft 23 kts 263°
2026-05-06 13:39 48.36041 11.78647 1486 ft 25 kts 263°
2026-05-06 13:39 48.36019 11.78382 1476 ft 27 kts 265°
2026-05-06 13:39 48.35998 11.78097 1482 ft 28 kts 263°
2026-05-06 13:40 48.35975 11.77797 1479 ft 30 kts 263°
2026-05-06 13:40 48.35951 11.77486 1480 ft 31 kts 263°
2026-05-06 13:40 48.35928 11.77176 1483 ft 19 kts 264°
2026-05-06 13:40 48.35983 11.76999 1474 ft 20 kts 324°
2026-05-06 13:41 48.36121 11.76958 1480 ft 21 kts 354°
2026-05-06 13:41 48.36260 11.76938 1481 ft 15 kts
2026-05-06 13:41 48.36297 11.77031 1486 ft 18 kts 82°
2026-05-06 13:41 48.36335 11.77521 1486 ft 84 kts 83°
2026-05-06 13:42 48.36428 11.78732 1481 ft 147 kts 83°
2026-05-06 13:42 48.36557 11.80410 1982 ft 166 kts 82°
2026-05-06 13:42 48.36706 11.82167 2792 ft 176 kts 82°
2026-05-06 13:42 48.37175 11.84018 3219 ft 207 kts 54°
2026-05-06 13:43 48.38457 11.85292 3750 ft 242 kts 21°
2026-05-06 13:43 48.40165 11.85925 4679 ft 261 kts
2026-05-06 13:43 48.41987 11.85534 5761 ft 274 kts 336°
2026-05-06 13:43 48.43515 11.83795 6802 ft 280 kts 310°
2026-05-06 13:44 48.44765 11.81579 8027 ft 282 kts 306°
2026-05-06 13:44 48.46018 11.79283 9282 ft 286 kts 306°
2026-05-06 13:44 48.47298 11.76965 10406 ft 290 kts 306°
2026-05-06 13:44 48.48603 11.74630 11492 ft 293 kts 306°
2026-05-06 13:45 48.49928 11.72276 12600 ft 295 kts 305°
2026-05-06 13:45 48.52627 11.67500 14598 ft 303 kts 304°
2026-05-06 13:45 48.54006 11.65060 15441 ft 309 kts 304°
2026-05-06 13:46 48.55416 11.62566 16297 ft 314 kts 304°
2026-05-06 13:46 48.56844 11.60038 17176 ft 319 kts 304°
2026-05-06 13:46 48.58309 11.57443 17808 ft 333 kts 304°
2026-05-06 13:46 48.59852 11.54692 18148 ft 354 kts 304°
2026-05-06 13:47 48.61490 11.51773 18473 ft 373 kts 305°
2026-05-06 13:47 48.63195 11.48743 19071 ft 384 kts 305°
2026-05-06 13:47 48.64943 11.45641 19790 ft 390 kts 304°
2026-05-06 13:47 48.66717 11.42488 20507 ft 396 kts 304°
2026-05-06 13:48 48.68514 11.39296 21229 ft 402 kts 304°
2026-05-06 13:48 48.70499 11.36244 21915 ft 414 kts 314°
2026-05-06 13:48 48.72790 11.33529 22572 ft 423 kts 319°
2026-05-06 13:48 48.75224 11.30959 23260 ft 430 kts 321°
2026-05-06 13:49 48.77737 11.28448 23653 ft 434 kts 321°
2026-05-06 13:49 48.80281 11.25953 23758 ft 439 kts 321°
2026-05-06 13:49 48.82858 11.23408 23744 ft 442 kts 321°
2026-05-06 13:49 48.85281 11.20569 23750 ft 439 kts 314°
2026-05-06 13:50 48.87598 11.17563 23752 ft 438 kts 313°
2026-05-06 13:50 48.89872 11.14480 23754 ft 438 kts 312°
2026-05-06 13:50 48.92117 11.11361 23752 ft 437 kts 311°
2026-05-06 13:50 48.94352 11.08219 23767 ft 437 kts 311°
2026-05-06 13:51 48.96551 11.05118 23766 ft 437 kts 311°
2026-05-06 13:51 48.98780 11.01973 23785 ft 436 kts 312°
2026-05-06 13:51 49.01000 10.98845 23773 ft 434 kts 312°
2026-05-06 13:51 49.03213 10.95729 23799 ft 433 kts 312°
2026-05-06 13:52 49.05428 10.92612 23796 ft 433 kts 312°
2026-05-06 13:52 49.07635 10.89502 23797 ft 432 kts 312°
2026-05-06 13:52 49.09845 10.86392 23796 ft 432 kts 312°
2026-05-06 13:52 49.12053 10.83275 23792 ft 432 kts 312°
2026-05-06 13:53 49.14257 10.80156 23817 ft 432 kts 312°
2026-05-06 13:53 49.16458 10.77033 23815 ft 432 kts 312°
2026-05-06 13:53 49.18661 10.73904 23815 ft 432 kts 312°
2026-05-06 13:53 49.20848 10.70762 23813 ft 431 kts 310°
2026-05-06 13:54 49.22940 10.67492 23793 ft 429 kts 310°
2026-05-06 13:54 49.25000 10.64197 23786 ft 427 kts 310°
2026-05-06 13:54 49.27056 10.60918 23789 ft 427 kts 310°
2026-05-06 13:54 49.29119 10.57638 23785 ft 428 kts 311°
2026-05-06 13:55 49.31186 10.54357 23789 ft 428 kts 311°
2026-05-06 13:55 49.33258 10.51073 23784 ft 428 kts 311°
2026-05-06 13:55 49.35316 10.47777 23784 ft 428 kts 309°
2026-05-06 13:55 49.37168 10.44224 23778 ft 425 kts 303°
2026-05-06 13:56 49.38859 10.40570 23778 ft 425 kts 302°
2026-05-06 13:56 49.40548 10.36854 23777 ft 425 kts 301°
2026-05-06 13:56 49.42241 10.33127 23777 ft 425 kts 302°
2026-05-06 13:56 49.43934 10.29401 23801 ft 425 kts 302°
2026-05-06 13:57 49.45625 10.25680 23798 ft 425 kts 302°
2026-05-06 13:57 49.47315 10.21955 23795 ft 425 kts 302°
2026-05-06 13:57 49.49008 10.18223 23758 ft 425 kts 302°
2026-05-06 13:57 49.50685 10.14526 23548 ft 418 kts 302°
2026-05-06 13:58 49.52333 10.10887 23109 ft 410 kts 302°
2026-05-06 13:58 49.53954 10.07303 22526 ft 406 kts 302°
2026-05-06 13:58 49.55589 10.03684 21932 ft 407 kts 302°
2026-05-06 13:58 49.57175 10.00159 21352 ft 405 kts 302°
2026-05-06 13:59 49.58773 9.96610 20795 ft 401 kts 302°
2026-05-06 13:59 49.60354 9.93097 20232 ft 397 kts 302°
2026-05-06 13:59 49.61919 9.89604 19669 ft 393 kts 302°
2026-05-06 13:59 49.63466 9.86147 19107 ft 390 kts 302°
2026-05-06 14:00 49.64999 9.82718 18543 ft 387 kts 302°
2026-05-06 14:00 49.66520 9.79314 17991 ft 383 kts 301°
2026-05-06 14:00 49.68023 9.75945 17390 ft 380 kts 302°
2026-05-06 14:00 49.69505 9.72625 17026 ft 370 kts 301°
2026-05-06 14:01 49.70935 9.69417 16434 ft 357 kts 301°
2026-05-06 14:01 49.72325 9.66291 15838 ft 351 kts 301°
2026-05-06 14:01 49.73684 9.63232 15306 ft 339 kts 301°
2026-05-06 14:01 49.74994 9.60290 14826 ft 328 kts 301°
2026-05-06 14:02 49.76257 9.57439 14340 ft 313 kts 301°
2026-05-06 14:02 49.77462 9.54724 13816 ft 300 kts 301°